Location: Caltech
(34.1382°N, 118.1253°W)
Time: 00:26:57
(UTC-08:00)

Meteor 2-4 Rocket - Visible Passes

Search period start: 28 November 2014 00:00
Search period end: 08 December 2014 00:00
Orbit: 799 x 909 km, 81.2° (Epoch: 27 November)

Date Brightness Start Highest point End Pass type
(mag) Time Alt. Az. Time Alt. Az. Time Alt. Az.
28 Nov 6.7 04:49:52 10° NE 04:51:26 11° ENE 04:53:00 10° E visible
28 Nov 5.6 17:54:58 10° ESE 17:55:15 11° ESE 17:55:15 11° ESE visible
28 Nov 5.4 19:35:15 10° SSW 19:37:25 24° SW 19:37:25 24° SW visible
29 Nov 6.9 04:39:49 10° ENE 04:40:28 10° ENE 04:41:06 10° ENE visible
29 Nov 5.3 17:44:21 10° ESE 17:45:42 13° ESE 17:45:42 13° ESE visible
29 Nov 4.7 19:24:16 10° SSW 19:27:52 39° SW 19:27:52 39° SW visible
30 Nov 4.0 06:07:21 10° N 06:13:14 87° E 06:19:10 10° S visible
30 Nov 5.2 17:33:46 10° ESE 17:36:10 13° E 17:36:10 13° E visible
30 Nov 4.1 19:13:17 10° SSW 19:18:21 57° W 19:18:21 57° W visible
01 Dec 4.0 05:56:26 10° N 06:02:19 82° E 06:08:15 10° S visible
01 Dec 5.3 17:23:16 10° ESE 17:25:20 12° E 17:26:40 11° ENE visible
01 Dec 4.0 19:02:18 10° SSW 19:07:36 62° W 19:08:51 49° NNW visible
02 Dec 4.1 05:45:31 10° N 05:51:24 77° E 05:57:19 10° SSE visible
02 Dec 5.4 17:12:52 10° E 17:14:27 11° E 17:16:02 10° ENE visible
02 Dec 3.9 18:51:20 10° SSW 18:56:40 67° W 18:59:21 30° N visible
03 Dec 4.1 05:34:36 10° N 05:40:30 72° E 05:46:24 10° SSE visible
03 Dec 3.8 18:40:22 10° SSW 18:45:44 72° W 18:49:50 18° N visible
04 Dec 4.2 05:23:42 10° N 05:29:34 67° E 05:35:27 10° SSE visible
04 Dec 3.7 18:29:24 10° SSW 18:34:47 77° W 18:40:16 10° N visible
05 Dec 4.3 05:12:48 10° N 05:18:39 63° E 05:24:31 10° SSE visible
05 Dec 3.7 18:18:27 10° S 18:23:52 83° W 18:29:27 10° N visible
06 Dec 4.4 05:01:54 10° N 05:07:44 59° E 05:13:33 10° SSE visible
06 Dec 3.6 18:07:31 10° S 18:12:56 88° W 18:18:32 10° N visible
07 Dec 4.5 04:51:01 10° N 04:56:49 55° E 05:02:36 10° SSE visible
07 Dec 3.6 17:56:35 10° S 18:02:00 86° E 18:07:37 10° N visible
